Location: Pinhead Observatory
(34.4473°N, 118.1985°W)
Time: 11:44:57
(UTC-07:00)

Daily predictions for brighter satellites

Satellite Brightness Start Highest point End
(mag) Time Altitude Azimuth Time Altitude Azimuth Time Altitude Azimuth
CZ-2D R/B 3.3 20:20:08 10° SSE 20:24:01 77° ENE 20:27:55 10° N
Tsikada Rocket 4.1 20:18:18 10° S 20:24:26 63° E 20:30:32 10° NNE
Cosmos 1633 Rocket 4.4 20:22:06 10° SSW 20:26:18 45° W 20:30:33 10° N
ALOS 4.4 20:25:53 10° SSW 20:29:53 28° W 20:33:54 10° NW
Cosmos 1943 Rocket 3.4 20:27:39 10° SSE 20:31:39 20° E 20:35:37 10° NE
Tiangong 2 2.6 20:29:16 10° NW 20:32:11 30° NNE 20:35:04 10° E
NOSS 3-2 (C) 3.7 20:29:07 10° SW 20:35:01 77° WNW 20:41:28 10° NNE
Cosmos 2034 Rocket 4.0 20:31:08 10° N 20:37:21 89° ENE 20:43:31 10° S
Cosmos 2344 4.4 20:32:33 10° SSE 20:38:40 26° ESE 20:44:49 10° NE
Envisat 3.1 20:35:01 10° SSE 20:39:59 60° ENE 20:45:00 10° N
Cosmos 2242 Rocket 3.9 20:37:07 10° NNW 20:41:33 69° W 20:45:56 10° S
Cosmos 990 Rocket 4.1 20:37:48 10° SSW 20:42:59 83° WNW 20:48:14 10° NNE
CZ-4B DEB 4.5 20:41:44 11° ESE 20:43:14 15° ENE 20:45:05 10° NNE
Cosmos 1933 Rocket 4.0 20:41:39 10° SSW 20:45:57 65° W 20:50:16 10° N
Helios 1A 3.8 20:42:21 10° SE 20:46:08 35° ENE 20:49:58 10° N
CENTAUR R/B 2.7 20:43:47 10° S 20:49:14 43° ESE 20:55:18 10° NE
Molniya-1 2.1 20:47:18 10° SSW 20:49:20 65° ESE 20:51:00 10° NE
COSMOS 2455 2.8 20:44:40 10° SSW 20:50:39 76° ESE 20:56:40 10° NNE
Cosmos 2369 Rocket 2.2 20:47:40 10° S 20:53:13 63° ESE 20:58:50 10° NNE
OAO 2 Rocket 3.8 20:48:36 10° W 20:53:29 49° SSW 20:57:22 15° SE
Cosmos 1862 Rocket 3.8 20:49:06 10° N 20:53:35 77° W 20:58:02 10° S
Resurs 01 Rocket 2.5 20:49:36 10° S 20:53:53 50° W 20:58:11 10° NNW
Cosmos 1125 Rocket 4.1 20:49:17 10° SSE 20:53:58 34° E 20:58:39 10° NE
Shenzhou-11 Module 2.5 20:52:21 10° NW 20:55:21 51° NNE 20:57:31 17° E
Milstar 3 4.1 20:42:20 10° SW 20:55:49 46° SSE 21:03:20 11° E
Lacrosse 5 rocket 1.1 20:53:13 10° SW 20:56:47 77° NW 21:00:24 10° NE
Cosmos 1606 4.4 20:55:22 10° NE 20:57:46 16° ENE 20:58:52 14° E
YAOGAN 6 3.0 20:58:22 15° SE 21:01:08 45° ENE 21:04:41 10° N
Cosmos 1346 Rocket 2.8 20:57:22 10° N 21:01:20 69° E 21:04:59 12° SSE
Cosmos 1939 Rocket 2.9 21:00:58 10° SSE 21:05:06 84° ENE 21:09:15 10° N
Delta 168 4.2 21:04:30 10° SW 21:07:25 23° S 21:08:58 19° SSE
OE (NEXTSAT) 4.3 21:06:38 10° WNW 21:10:11 89° SSW 21:12:03 26° SE
SL-19 R/B 4.4 21:06:00 10° SSE 21:11:40 89° ENE 21:17:45 10° NNW
GPS 2-04 Rocket1 2.6 21:10:24 10° W 21:14:09 72° N 21:16:29 20° E
Okean 1-7 3.5 21:13:19 10° N 21:17:33 44° E 21:19:40 25° SE
ATLAS 5 CENTAUR R/B 3.7 21:13:53 10° N 21:19:00 27° NE 21:22:41 17° E
Cosmos 2279 Rocket 4.5 21:13:16 10° N 21:19:08 41° E 21:22:38 22° SE
Meteor 1-29 2.9 21:19:22 10° N 21:22:52 85° WNW 21:26:21 10° SSW
Aureole 3 2.5 21:21:59 25° S 21:23:36 70° E 21:26:34 10° NNE
H-2A R/B 3.5 21:22:47 19° E 21:24:41 23° ENE 21:28:46 10° NNE
Cosmos 2142 Rocket 4.4 21:20:27 10° N 21:26:35 75° E 21:31:22 17° SSE
Cosmos 1408 2.6 21:26:49 29° SSE 21:28:31 59° E 21:32:11 10° NNE
Cosmos 1656 Rocket 4.4 21:29:16 27° ESE 21:30:03 28° ESE 21:34:38 10° NE
Cosmos 1703 Rocket 3.6 21:26:20 10° N 21:30:45 81° W 21:33:41 21° S
ARGOS 3.8 21:29:08 26° ESE 21:31:26 39° ENE 21:36:23 10° N
Cosmos 1733 Rocket 3.9 21:38:50 30° E 21:38:50 30° E 21:42:35 10° NNE
Cosmos 1782 2.7 21:35:27 10° N 21:39:26 66° E 21:40:31 44° SSE
Cosmos 1825 2.0 21:38:01 32° S 21:39:38 81° E 21:43:26 10° N
DNEPR-1 R/B 4.2 21:35:11 10° SW 21:40:41 70° WNW 21:45:20 10° NNE
Cosmos 1869 Rocket 4.4 21:41:36 10° SSW 21:45:47 49° W 21:50:02 10° N
ERS-1 Rocket 2.9 21:43:33 31° SSE 21:46:01 85° ENE 21:51:04 10° NNW
SL-08 RB Rocket 4.3 21:45:10 36° ESE 21:46:08 41° ENE 21:50:31 10° N
Helios 1B rocket 4.3 21:47:37 10° N 21:51:13 30° WNW 21:54:48 10° SW
Cosmos 2084 3.2 21:49:55 10° NW 21:53:47 73° WSW 21:54:26 57° S
Cosmos 1862 3.1 21:55:14 65° ESE 21:55:30 68° E 21:59:26 10° NNE
Nimbus 7 Rocket 4.5 21:51:53 10° NNE 21:57:37 52° ESE 21:59:17 40° SSE
ISS -0.4 21:56:23 10° NW 21:57:48 12° NNW 21:59:13 10° N
Cosmos 1048 Rocket 3.9 21:53:29 10° NNW 21:58:48 71° ENE 22:00:11 48° SE
Lacrosse 4 Rocket 2.1 21:57:37 10° N 22:01:53 41° ENE 22:02:08 41° ENE
OAO 3 Copernicus 4.2 22:00:31 10° WSW 22:05:34 85° S 22:06:59 48° E
MetOp-A 4.2 22:03:35 37° S 22:05:46 75° WSW 22:11:08 10° NNW
Cosmos 2221 Rocket 4.5 22:01:39 10° NNW 22:05:53 45° W 22:07:52 27° SSW
Tiangong 2 2.6 22:06:05 10° WNW 22:08:08 32° W 22:08:08 32° W
deb Kosmos-1763 4.2 22:07:45 10° NNW 22:11:15 74° NW 22:11:15 74° NW
Terra 3.1 22:12:01 26° ENE 22:12:01 26° ENE 22:15:41 10° NNE
USA 215 3.4 22:09:49 38° ESE 22:12:23 66° NE 22:18:53 10° NW
Cosmos 1943 Rocket 3.2 22:09:40 10° SW 22:14:59 44° WNW 22:20:18 10° N
Cosmos 1340 3.0 22:14:55 10° NNW 22:18:27 60° WNW 22:18:27 60° WNW
DMSP B5D2-2 4.0 22:14:14 10° NNE 22:19:24 60° E 22:19:27 60° ESE
Cosmos 1674 Rocket 4.2 22:15:20 10° N 22:18:42 41° NE 22:18:42 41° NE
SPOT 1/Viking Rocket 3.4 22:22:10 68° SE 22:22:45 78° ENE 22:27:58 10° N
SPOT 5 3.2 22:26:39 53° SSW 22:27:48 69° WSW 22:33:07 10° NNW
H-2A R/B 4.0 22:31:06 19° NE 22:31:06 19° NE 22:32:55 10° NNE
YAOGAN 11 4.4 22:31:48 60° WSW 22:31:59 60° W 22:36:28 10° NNW
Cosmos 1269 Rocket 4.4 22:29:55 10° NNW 22:35:04 55° WSW 22:35:49 50° SW
GEOS 3 Rocket 4.5 22:35:53 36° ENE 22:36:19 36° NE 22:41:03 10° NNW
Cosmos 1092 Rocket 3.8 22:36:34 66° SSE 22:37:30 81° E 22:43:39 10° N
Nadezhda 4 Rocket 4.2 22:35:52 39° SSW 22:38:16 68° W 22:44:25 10° N
CENTAUR R/B 4.3 22:34:46 10° WSW 22:40:00 30° NW 22:45:50 10° NNE
Cosmos 1833 4.3 22:41:53 10° NNW 22:47:37 67° WSW 22:47:58 65° SW
Cosmos 2344 4.4 22:45:06 10° SW 22:52:27 49° NW 23:00:31 10° NNE
Cosmos 2297 Rocket 4.3 22:56:46 10° NNE 22:59:46 14° NE 23:00:02 14° ENE
H-2A ROCKET BODY 3.9 22:56:58 10° WSW 23:29:22 - ESE 22:58:45 24° SW
H-2A R/B 3.0 23:03:26 40° WSW 23:03:48 40° W 23:08:50 10° NNW
ATLAS 5 CENTAUR R/B 2.8 22:57:57 10° NW 23:03:58 53° WSW 23:04:14 52° SW
Cosmos 1867 3.9 22:58:41 10° NNW 23:03:23 59° NNE 23:03:23 59° NNE
Cosmos 494 Rocket 4.4 23:05:13 10° NNW 23:09:26 58° NW 23:09:26 58° NW
Milstar 3 3.8 23:30:54 10° W 23:36:55 39° WSW 23:36:55 39° WSW
Lacrosse 4 Rocket 4.3 23:37:38 10° WNW 23:38:29 12° W 23:38:29 12° W
Cosmos 1655 Rocket 4.3 23:43:07 62° NW 23:43:07 62° NW 23:48:40 10° N
ATLAS CENTAUR R/B 4.1 23:48:33 16° NNW 23:48:33 16° NNW 23:49:55 10° N
CZ-2C R/B 4.2 23:43:35 10° NNE 23:46:00 27° NE 23:46:00 27° NE
Terra 3.9 23:50:54 22° WNW 23:50:54 22° WNW 23:53:20 10° NW
Cosmos 2227 Rocket 3.3 23:44:24 10° N 23:48:21 38° NNE 23:48:21 38° NNE
